P/2014 W12 ( Gibbs )

Japanese version
Home page
Updated on June 11, 2016

---------------------------------------------------------------------

* Profile

Discovery Date November 30, 2014
Magnitude 18.3 mag
Discoverer A. R. Gibbs (Mount Lemmon)

* Pictures

* Orbital Elements

Epoch 2014 Oct. 30.0 TT = JDT 2456960.5
T 2014 Nov. 15.15253 TT                                 MPCW
q   1.6760133            (2000.0)            P               Q
n   0.14923657     Peri.   37.01432     +0.90978062     +0.39449209
a   3.5200801      Node   299.27201     -0.40740573     +0.78905034
e   0.5238707      Incl.    8.51309     -0.07949714     +0.47093051
P   6.60
From 67 observations 2014 Nov. 30-2015 Jan. 7, mean residual 0".5.

* Magnitudes Graph

        m1 = 14.0 + 5 log d + 10.0 log r

---------------------------------------------------------------------

The orbital elements are published on M.P.E.C. 2015-G03.
The magnitudes graphs are made with Comet for Windows.

---------------------------------------------------------------------

Copyright(C) Seiichi Yoshida (comet@aerith.net). All rights reserved.